Погода в Лозенце

Болгария     43°45′33″N   27°43′31″E
темп.,
°C
ветер,
м/с
пор.,
м/с
влажн.,
%
обл.,
%
осадки,
мм/ч
давл.,
гПа
погр.,
м
18 мая, вт
вт1800:00+12юз358950 0.0 100683
03:00+14зюз4108698 0.3 1006244
06:00+12зюз6149014 0.0 1006482
09:00+15з915720 0.0 1007971
12:00+17з1215570 0.0 10061436
15:00+19з1216540 0.0 10061995
18:00+17з1117600 0.0 10061664
21:00+14з1017614 0.0 10071128
19 мая, ср
ср1900:00+13з816645 0.0 1009864
03:00+12з817685 0.0 1009722
06:00+11з715744 0.0 1011501
09:00+15з712640 0.0 1012687
12:00+19з57465 0.0 10121455
15:00+21з57435 0.0 10121767
18:00+22з3548100 0.0 10101833
21:00+15ююв477520 0.0 1010104
20 мая, чт
чт2000:00+14ююв5127416 0.1 1009236
03:00+13ююв5148323 0.2 1008286
06:00+12ююз3987100 0.0 1008193
09:00+15зсз5683100 0.0 1008448
12:00+16зсз7980100 0.1 1009846
15:00+15зсз697399 0.3 1010666
18:00+14зсз61172100 0.1 1009844
21:00+12з51188100 0.7 1011460
21 мая, пт
пт2100:00+10з51290100 0.0 1012338
03:00+8з41192100 0.0 1012429
06:00+8з51291100 0.0 1012511
09:00+12зсз7976100 0.0 1011736
12:00+14сз5673100 0.1 10121013
15:00+14с4781100 1.9 1011807
18:00+13ссв3991100 2.2 1012371
21:00+12ссз3992100 2.5 1012320
22 мая, сб
сб2200:00+12ссз71495100 0.8 1013598
03:00+11с6149468 1.4 1013643
06:00+10ссз6159461 0.0 1014567
09:00+12ссз7138853 0.0 1015743
12:00+18ссз8961100 0.0 10141443
15:00+19с576064 0.0 10141557
18:00+20сз45576 0.0 10131280
21:00+15зсз33720 0.0 101437